INTELSAT 701 (IS-701) (22871 NORAD) Tracking and Keplerian Element Data

This shows tracking and keplerian element data for the satellite.

Feedback or suggestion? Click here.




ElementValue
Catalog22871
NameINTELSAT 701 (IS-701)
Epoch Orbit9181
Epoch Day348.83824613
Epoch Year2018
RAAN64.4508
Inclination5.2327
Eccentricity0.000274
Argument of Perigee234.2603
Mean Anonmoly244.4596
Mean Motion0.99326294
Decay Rate-2.59E-06
L11 22871U 93066A 18348.83824613 -.00000259 00000-0 00000+0 0 9999
L22 22871 5.2327 64.4508 0002740 234.2603 244.4596 0.99326294 91818

Live tracking and technical data element details for INTELSAT 701 (IS-701) (NORAD 22871). INTELSAT 701 (IS-701) can be tracked NOW for your location showing map with azimuth and elevation plus other details from your city location.

Track the satellite on the map from your city or location and see movement details for azimuth, elevation, latitude, longitude, range, height, and movement on the map or in text.







IsCatalogInMostPopularTable: catalog: 22871, numindb: 60
Update: records affected: 1



GetName: 22871 INTELSAT 701 (IS-701)

Hit Count: updated at: Sun, 16 Dec 2018 10:07:34 GMT